Temp
9 9 9 9 9 9 9 9 9 9 9 9 9 9 9 9 9 9 9 9 9 10 10 10 10 10 10 10 10 9 9 9 9 8 8 8 7 7 7 7 7 7 8 8 8 8 8 8 8 8 8 8 8 8 8 8 8 8 8 8 8 8 8 8 8 8 8 8 8
9 9 9 9 9 9 9 9 9 9 9 9 9 9 9 9 9 9 9 9 10 10 10 10 10 10 10 10 10 9 9 9 9 8 8 8 7 7 7 7 7 7 7 7 8 8 7 7 7 7 7 7 7 7 7 8 8 8 8 8 8 8 8 8 8 8 8 8 8
9 9 9 8 8 8 9 9 9 9 9 9 9 9 9 9 9 9 9 9 9 10 10 10 10 10 10 10 9 9 9 9 9 8 8 8 7 7 7 7 7 7 7 7 7 7 7 7 7 7 7 7 7 7 7 7 7 7 7 7 7 7 7 7 8 8 8 8 8
9 9 8 8 8 8 9 9 9 9 9 9 9 9 9 9 9 9 9 9 9 9 9 9 10 10 9 9 9 9 9 9 9 8 8 8 8 7 7 7 7 7 7 7 7 7 7 7 7 7 7 7 7 7 7 7 7 7 7 7 7 7 7 7 7 7 7 7 8
9 9 8 8 9 9 9 9 9 9 9 9 9 9 9 9 9 9 9 9 9 9 9 9 9 9 9 9 9 9 9 9 8 8 8 8 8 7 7 7 7 7 7 7 6 6 6 6 6 6 7 7 7 7 7 7 7 7 7 7 7 7 7 7 7 7 7 7 7
9 9 9 9 9 9 9 9 9 9 9 9 9 9 9 9 9 9 9 9 9 9 9 9 9 9 9 9 9 8 8 8 8 8 8 8 8 7 7 7 7 7 7 6 6 6 6 6 6 6 6 6 6 6 6 6 7 7 7 7 7 7 7 7 7 7 7 7 7
9 9 9 9 9 9 9 8 8 8 8 9 9 9 9 9 9 9 9 9 9 9 9 9 9 9 9 9 9 8 8 8 8 8 8 8 8 7 7 7 7 7 6 6 6 6 6 6 6 6 6 6 6 6 6 6 6 6 6 7 7 7 7 7 7 7 7 7 7
9 9 9 9 9 9 9 9 8 8 8 8 9 9 9 9 9 9 9 9 9 9 9 9 9 9 9 9 9 8 8 8 8 8 8 8 7 7 7 7 6 6 6 6 6 6 6 5 6 6 6 6 6 6 6 6 6 6 6 6 6 6 6 6 7 7 7 7 7
9 9 9 9 9 9 9 9 9 8 8 8 9 9 9 9 9 9 9 9 9 9 9 9 9 9 9 9 9 8 8 8 7 7 8 7 7 7 6 6 6 6 6 6 6 6 5 5 5 5 6 6 6 6 6 6 6 6 6 6 6 6 6 6 6 6 6 6 6
9 9 9 9 9 9 9 9 9 9 9 9 9 9 9 9 9 9 9 9 9 9 9 9 9 9 9 9 8 8 8 8 7 7 7 7 7 7 6 6 6 6 6 6 6 5 5 5 5 5 5 5 6 6 6 6 6 6 6 6 6 6 6 6 6 6 6 6 6
9 9 9 9 10 10 9 9 9 9 9 9 9 9 9 9 9 9 9 9 9 9 9 9 9 9 9 9 8 8 8 8 7 7 7 7 7 7 7 6 6 6 6 6 6 5 5 5 5 5 5 5 5 5 5 5 5 5 6 6 6 6 6 6 6 6 6 6 6
9 9 9 9 9 9 9 9 9 9 8 8 9 9 9 9 9 9 9 9 9 9 9 9 9 9 9 9 8 8 8 7 7 7 7 7 7 7 7 6 6 6 6 6 6 5 5 5 5 5 5 5 5 5 5 5 5 5 5 5 5 5 6 6 6 6 6 6 6
9 9 9 9 8 8 8 8 8 8 8 8 8 9 9 9 9 9 8 8 9 9 9 9 9 9 9 8 8 8 8 7 7 7 7 7 7 7 6 6 6 6 6 6 5 5 5 5 5 5 5 5 5 5 5 5 5 5 5 5 5 5 5 6 6 6 5 5 5
9 8 8 8 8 8 8 8 8 8 8 8 8 8 8 8 8 8 8 8 8 8 8 9 8 8 8 8 8 8 8 7 7 7 7 7 7 7 6 6 6 6 6 6 5 5 5 5 5 5 5 5 5 5 5 5 5 5 5 5 5 5 5 5 5 5 5 5 5
8 8 8 8 8 7 7 8 8 8 8 8 8 8 8 8 8 8 8 8 8 8 8 8 8 8 8 8 8 8 8 7 7 7 7 7 7 7 6 6 6 6 6 6 6 6 6 6 6 6 5 5 5 5 5 5 5 5 5 5 5 5 5 5 5 5 5 5 5
7 7 8 7 7 7 7 7 7 7 8 8 8 8 8 8 8 8 8 8 8 8 8 8 8 8 8 8 8 7 7 7 7 7 7 7 7 7 6 6 6 6 6 6 6 6 6 6 6 6 5 5 5 5 5 5 5 5 5 5 5 5 5 5 4 4 4 4 4
7 7 7 7 7 7 7 7 7 7 7 8 8 8 7 7 7 7 8 8 8 8 8 8 8 8 8 7 7 7 7 7 7 7 7 7 7 7 6 6 6 6 6 6 6 6 6 6 6 6 6 5 5 5 5 5 4 4 5 4 4 4 4 4 4 4 4 4 4
6 6 6 6 7 7 7 7 7 7 8 8 7 7 7 7 7 7 7 7 7 7 7 8 8 8 7 7 7 7 7 7 7 7 7 7 7 7 6 6 6 6 6 6 6 6 6 6 6 6 5 5 5 5 4 4 4 4 4 4 4 4 4 4 4 3 3 3 4
6 6 6 6 6 7 7 7 7 7 8 8 7 7 7 7 7 7 7 7 7 7 7 7 7 7 7 7 7 7 7 7 7 7 7 7 7 6 6 6 6 6 6 6 6 6 6 6 6 5 5 5 5 4 4 4 4 3 3 3 3 3 3 3 3 3 3 3 3
6 6 6 6 6 7 7 7 7 7 7 7 7 7 7 7 7 7 7 7 7 7 7 7 7 7 7 7 7 7 7 7 7 7 7 7 6 6 6 6 6 6 6 5 5 5 5 5 5 5 5 5 4 4 4 4 3 3 3 3 3 3 3 3 3 3 3 3 3
6 6 6 6 6 6 7 7 7 7 7 7 7 7 7 7 6 7 7 7 7 7 7 7 7 7 7 7 7 7 6 6 6 6 6 6 6 6 6 6 6 5 5 5 5 5 5 5 4 4 4 4 4 4 4 3 3 3 3 3 2 3 3 3 3 3 3 3 2
6 6 6 6 6 6 6 6 6 6 6 6 6 6 6 6 6 6 7 7 6 6 6 6 6 6 6 6 6 6 6 6 6 6 6 6 6 6 6 5 5 5 5 5 5 4 4 4 4 4 4 4 3 3 3 3 3 3 3 3 2 2 2 2 2 2 2 2 2
7 6 6 6 6 6 6 6 6 6 6 6 6 6 6 6 6 6 6 6 6 6 6 6 6 6 6 6 6 6 6 6 5 6 6 6 6 5 5 5 5 5 5 5 4 4 4 4 3 3 3 3 3 3 3 3 3 3 3 2 2 2 2 2 2 2 2 2 2
6 6 6 6 6 5 5 5 5 5 5 5 6 6 5 5 6 5 5 5 5 5 6 6 6 6 6 6 6 5 5 5 5 5 5 5 5 5 5 5 4 5 5 5 4 4 4 3 3 3 3 2 2 2 2 2 2 2 2 2 2 2 1 1 1 1 2 2 2
6 6 6 5 5 5 5 5 5 5 5 5 5 5 5 5 5 5 5 5 5 5 5 5 5 5 5 5 5 5 5 5 5 5 5 5 5 4 4 4 4 4 4 4 4 4 3 3 3 3 2 2 2 2 2 2 2 2 2 1 1 1 1 1 1 1 1 2 2
6 6 5 5 5 5 5 5 5 5 5 5 5 5 5 5 4 4 4 4 5 5 5 5 5 5 5 4 4 4 4 5 5 5 4 4 4 4 4 4 4 4 4 4 4 3 3 3 2 2 2 2 2 1 1 1 1 1 1 1 1 1 1 1 1 0 0 1 1
6 6 5 5 5 5 5 5 5 5 4 4 4 4 4 4 4 4 4 4 4 4 4 4 4 4 4 4 4 4 4 4 4 4 4 4 4 4 4 4 4 4 4 4 3 3 3 2 2 2 1 2 1 1 1 1 1 1 1 1 0 0 0 0 1 0 0 0 0
6 6 5 5 5 5 5 5 4 4 4 4 4 4 4 4 4 4 4 4 4 4 4 4 4 4 3 3 3 4 4 4 4 4 4 4 4 4 4 4 4 4 4 4 3 3 2 2 2 1 1 1 1 1 1 1 1 1 0 0 0 0 1 1 1 1 0 0 0
6 6 5 5 5 5 5 4 4 4 4 4 4 4 4 3 3 3 3 3 3 3 3 3 3 3 3 3 3 3 3 3 3 3 3 3 3 3 3 3 4 4 4 3 3 3 2 2 2 1 1 1 1 1 1 1 1 0 0 0 0 1 1 1 1 1 1 0 0
6 5 5 5 5 5 5 4 4 4 4 4 4 3 3 3 3 3 3 3 3 3 3 3 3 3 3 3 3 3 3 3 3 3 3 3 3 3 3 3 3 3 3 3 3 2 2 2 2 1 1 1 1 1 1 0 0 0 0 0 0 0 1 1 1 1 1 0 0
6 5 5 5 5 5 5 5 4 4 4 4 3 3 3 3 3 3 3 3 3 3 3 3 3 3 3 3 3 3 2 2 2 2 2 2 2 3 3 3 3 3 3 3 2 2 2 2 1 1 1 1 1 0 0 0 0 0 0 0 0 0 0 0 0 0 0 0 -0
6 5 5 5 5 5 5 5 4 4 4 3 3 3 3 3 3 3 3 3 3 3 2 2 2 3 3 3 2 2 2 2 2 2 2 2 2 2 3 3 3 3 3 2 2 2 2 1 1 1 1 1 1 0 0 0 0 0 0 0 0 0 0 0 0 0 0 -0 -0
6 6 5 5 5 5 5 5 4 4 4 3 3 3 3 3 3 3 3 2 2 2 2 2 2 2 2 2 2 2 2 2 2 2 2 2 2 2 2 2 2 2 2 2 2 2 1 1 1 1 1 1 1 1 0 -0 -0 -0 -0 -0 -0 -0 -0 -0 -0 -0 -0 -0 -0
6 6 5 5 5 5 5 5 4 4 4 3 3 3 3 3 3 2 2 2 2 2 2 2 2 2 2 2 2 2 2 2 2 2 2 2 2 2 1 2 2 2 2 2 2 1 1 1 1 1 1 1 1 1 1 0 -0 -1 -1 -1 -1 -1 -1 -1 -1 -1 -1 -1 -1
6 6 5 5 5 5 5 5 4 4 4 3 3 3 3 3 3 3 2 2 2 2 2 2 2 2 2 2 2 2 2 2 1 1 1 1 1 1 1 1 1 2 2 1 1 1 1 1 1 1 1 1 1 1 1 1 0 -0 -0 -1 -1 -1 -1 -1 -1 -1 -1 -1 -1
6 6 5 5 5 5 5 5 4 4 4 3 3 3 3 3 3 3 3 2 2 2 2 2 1 1 1 1 2 2 2 2 1 1 1 1 1 1 1 1 1 1 1 1 1 1 1 1 1 1 1 1 1 1 1 1 1 0 0 -0 -0 -1 -1 -1 -1 -1 -1 -1 -2
6 6 6 5 5 5 5 4 4 4 4 3 3 3 3 3 3 3 2 2 2 2 2 1 1 1 1 1 1 1 2 2 1 1 1 1 1 1 1 1 1 1 1 1 1 1 1 1 1 1 1 1 1 1 1 1 1 1 0 0 -0 -0 -0 -1 -1 -1 -1 -1 -2
6 6 6 5 5 5 5 4 4 4 4 3 3 3 3 3 3 2 2 2 2 2 2 1 1 1 1 1 1 1 1 1 1 1 1 1 1 1 1 0 1 1 1 1 1 1 1 1 1 1 1 1 1 1 1 1 1 1 1 0 0 -0 -0 -1 -1 -1 -1 -1 -2
6 6 6 6 5 5 5 4 4 4 4 4 3 3 3 3 3 2 2 2 2 2 2 1 1 1 1 1 1 1 1 1 1 1 1 1 1 1 1 0 0 0 1 1 1 1 1 1 1 1 1 1 1 1 1 1 1 1 1 1 0 0 -0 -0 -1 -1 -1 -1 -2
6 6 6 6 5 5 5 4 4 4 4 4 3 3 3 3 3 3 2 2 2 2 2 2 1 1 1 1 1 1 1 1 1 1 1 1 1 1 0 0 0 0 0 0 1 1 1 1 1 1 1 1 1 1 1 1 1 1 1 1 0 0 -0 -0 -0 -1 -1 -1 -1
6 6 6 6 5 5 5 5 5 4 4 4 4 3 3 3 3 3 2 2 2 2 2 2 2 1 1 1 1 1 1 1 1 1 1 1 1 1 0 0 0 0 0 0 1 1 1 1 1 1 1 1 1 1 1 1 1 1 1 1 1 0 0 -0 -0 -1 -1 -1 -1
Height
758 759 760 760 761 762 763 763 764 764 764 765 765 766 766 767 768 768 769 769 769 770 770 771 771 772 772 773 773 773 774 774 774 775 775 775 776 776 777 777 778 779 779 780 781 781 782 783 783 784 784 785 785 786 786 787 787 788 788 789 789 789 790 790 791 791 791 792 792
757 758 758 759 760 761 761 762 762 763 763 763 764 764 765 766 766 767 767 768 768 769 769 769 770 771 771 772 772 772 773 773 774 774 774 775 775 776 776 776 777 778 779 779 780 780 781 782 782 783 783 784 784 785 785 786 786 787 787 788 788 789 789 789 790 790 791 791 791
755 756 757 758 759 759 760 760 761 761 761 762 762 763 764 764 765 765 766 766 767 768 768 768 769 769 770 771 771 771 772 772 773 773 774 774 774 775 775 776 776 777 778 778 779 779 780 781 781 782 782 783 783 784 784 785 785 786 787 787 788 788 789 789 789 790 790 790 791
754 755 756 756 757 758 758 758 759 759 760 760 761 762 763 763 764 764 764 765 766 766 767 767 768 768 769 769 770 771 771 772 772 773 773 774 774 774 775 775 776 776 777 778 778 779 779 780 780 781 781 782 783 783 784 784 784 785 786 786 787 787 788 788 789 789 789 790 790
753 754 754 754 755 756 756 757 758 758 759 760 760 761 761 762 762 763 763 764 764 764 765 766 767 767 768 769 769 770 770 771 772 772 773 773 774 774 774 775 775 775 776 777 778 778 779 779 780 780 781 781 782 782 783 784 784 784 785 786 786 787 787 788 788 788 789 789 789
752 752 753 753 754 754 755 756 757 757 758 759 759 760 760 760 761 761 762 762 762 763 764 765 766 766 767 767 768 769 769 770 771 771 772 772 773 774 774 774 774 775 776 776 777 777 778 779 779 779 780 780 781 782 782 783 783 784 784 785 785 786 786 787 787 788 788 788 789
750 751 752 752 753 753 754 754 755 756 757 758 758 758 758 759 759 759 760 761 761 763 763 764 764 765 765 766 767 768 768 769 770 771 771 772 772 773 773 774 774 774 775 775 776 777 777 778 778 779 779 779 780 781 781 782 782 783 783 784 784 785 785 786 786 787 787 788 788
749 749 750 750 751 752 753 753 754 755 756 756 756 756 757 757 758 758 759 760 760 761 762 763 763 764 764 765 765 766 767 768 769 770 770 771 771 772 772 773 773 774 774 775 775 776 776 777 777 778 778 779 779 779 780 781 781 782 782 783 784 784 785 785 785 786 786 787 787
747 748 748 749 750 750 751 752 753 754 754 754 754 754 755 756 757 757 758 759 759 760 761 761 762 763 763 764 764 765 766 767 768 769 769 770 770 771 771 772 772 773 774 774 774 775 776 776 776 777 777 778 778 779 779 780 780 781 781 782 783 783 784 784 784 785 785 786 786
745 745 746 747 748 749 749 750 751 752 752 752 753 753 754 755 755 756 756 757 758 759 759 760 761 761 762 762 763 764 764 765 766 767 768 769 769 770 770 771 771 772 772 773 774 774 775 775 775 776 776 777 777 778 779 779 779 780 780 781 782 782 783 783 784 784 784 785 785
743 744 744 745 745 747 748 749 749 750 750 750 751 752 752 753 754 754 755 756 757 758 758 759 759 760 760 761 762 762 763 764 765 766 767 767 768 768 769 769 770 770 771 772 773 773 774 774 774 775 775 776 776 777 778 778 779 779 779 780 781 781 782 782 783 783 783 784 784
741 742 743 744 744 745 746 747 747 748 748 749 749 749 750 751 752 753 754 755 755 755 756 757 758 758 759 759 760 761 762 763 764 764 765 766 766 767 768 768 769 769 770 771 771 772 772 773 773 774 774 775 775 776 776 777 777 778 779 779 780 780 781 781 781 782 782 783 784
740 741 742 742 743 744 745 745 745 745 746 746 747 747 748 749 750 751 752 753 753 754 754 755 756 757 757 758 759 759 760 761 762 763 764 764 765 766 766 767 768 768 769 769 770 771 771 771 772 772 773 774 774 775 775 776 776 777 777 778 779 779 779 780 780 781 781 782 782
739 740 740 741 742 743 743 743 743 744 744 744 744 745 746 747 749 749 750 751 751 752 753 754 754 755 756 756 757 758 759 760 761 762 762 763 764 764 765 765 766 767 768 768 769 769 770 770 770 771 772 772 773 774 774 775 775 776 776 777 777 778 778 779 779 780 780 781 781
737 738 739 739 740 741 741 741 741 741 742 742 742 743 744 745 746 748 749 749 750 750 751 752 753 754 754 755 756 757 758 759 759 760 761 761 762 763 763 764 764 765 766 767 767 768 768 769 769 770 770 771 772 772 773 774 774 774 775 776 776 777 777 778 779 779 779 780 780
735 736 736 737 738 739 739 739 739 739 739 739 740 741 742 743 744 746 747 747 748 749 750 750 751 752 753 754 754 755 756 757 758 759 759 760 760 761 761 762 763 764 764 765 766 766 767 767 768 769 769 770 771 771 772 773 773 774 774 774 775 776 776 777 778 778 779 779 779
733 734 734 735 736 736 736 736 737 737 737 738 738 739 740 741 743 744 744 745 746 747 748 748 749 750 751 752 753 754 754 755 756 757 757 758 758 759 760 760 761 762 763 764 764 764 765 766 767 768 768 769 770 770 771 771 772 772 773 774 774 775 775 776 777 777 778 778 778
731 731 732 733 733 733 734 734 734 735 735 736 737 738 739 739 740 741 742 743 744 745 746 746 747 749 749 750 751 752 753 753 754 754 755 756 757 758 758 759 760 761 761 762 763 763 764 764 765 766 767 768 769 769 770 770 771 771 772 772 773 774 774 775 775 776 776 777 777
729 729 730 730 730 730 731 732 732 733 734 734 735 736 737 738 739 739 740 741 742 743 744 745 746 747 747 748 749 749 750 751 752 753 753 754 755 756 757 758 759 759 760 761 761 762 763 763 764 765 766 767 767 768 769 769 769 770 770 771 772 772 773 774 774 775 775 775 776
726 727 727 727 728 728 729 729 730 731 732 733 734 735 736 736 737 738 739 739 740 741 742 743 744 744 745 746 747 748 748 749 750 751 752 753 754 754 755 756 757 758 759 759 760 761 761 762 763 764 764 765 766 766 767 768 768 769 769 769 770 771 771 772 773 773 774 774 774
724 724 724 725 725 726 727 728 729 729 731 732 733 733 734 734 735 736 736 737 738 739 740 741 742 743 743 744 745 745 746 747 748 749 750 751 752 753 754 754 755 756 757 758 759 759 760 760 761 762 763 764 764 765 765 766 767 767 768 768 769 769 770 771 771 772 772 773 773
721 722 722 723 724 724 725 726 727 728 729 730 730 731 732 733 733 734 735 736 737 738 739 739 740 740 741 742 743 744 745 746 747 748 749 749 750 751 752 753 754 755 756 756 757 758 758 759 760 760 761 762 763 763 764 764 765 766 766 767 767 768 769 769 770 770 771 771 772
719 720 720 721 722 723 724 724 725 726 727 728 728 729 730 731 731 732 734 735 736 736 736 737 738 739 739 740 741 742 744 744 745 746 747 748 749 749 750 751 752 753 754 754 755 756 757 758 758 759 760 760 761 762 762 763 764 764 764 765 766 766 767 767 768 769 769 769 770
717 718 719 719 720 721 722 722 723 724 724 725 726 727 728 729 730 731 732 733 734 734 734 735 736 737 738 739 740 741 742 743 744 744 745 746 747 748 749 749 750 751 752 752 753 754 755 756 757 757 758 759 759 760 761 761 762 763 763 764 764 765 765 766 766 766 767 768 769
715 716 717 717 718 719 719 720 721 721 722 722 724 725 726 727 728 729 730 731 731 732 733 733 734 735 736 738 738 739 740 741 742 743 744 744 745 746 747 748 748 749 750 751 752 753 754 754 755 756 756 757 758 759 759 760 760 761 761 762 763 763 764 764 764 765 765 766 767
714 714 715 715 716 717 717 718 718 719 719 720 722 723 724 724 726 727 728 728 729 730 731 732 733 734 734 735 736 737 738 739 739 740 741 742 743 744 745 746 746 747 748 749 750 751 752 753 754 754 755 756 756 757 758 758 759 759 760 760 761 762 762 763 763 763 764 764 765
712 712 713 713 714 714 714 715 716 717 718 719 719 720 721 722 724 724 725 726 727 728 729 730 731 732 733 734 734 735 735 736 737 738 739 740 741 742 743 744 744 745 746 747 748 749 750 751 752 753 754 754 755 755 756 756 757 758 758 759 759 760 760 761 761 762 762 763 764
710 710 710 711 712 712 712 713 714 714 715 716 717 718 719 720 721 722 723 724 725 726 727 728 729 730 731 732 732 732 733 734 735 736 737 738 739 739 740 741 742 743 744 745 747 748 749 750 751 752 752 753 753 754 754 755 755 756 757 757 758 758 759 759 760 760 761 762 762
707 708 709 709 709 709 710 711 711 712 712 714 715 716 717 718 719 719 720 721 723 724 724 725 726 728 729 729 729 730 731 732 733 734 735 735 736 737 738 739 740 741 742 744 745 746 747 749 749 751 751 752 752 752 753 754 754 754 755 755 756 756 757 758 758 759 760 760 761
705 706 706 707 707 707 708 708 709 709 710 712 713 714 715 716 716 717 718 719 720 720 721 723 724 725 726 726 727 728 729 730 731 732 733 733 734 734 735 736 737 739 740 742 743 744 746 747 748 749 750 751 751 751 751 752 752 753 754 754 754 755 755 756 757 758 758 759 760
704 704 704 704 704 704 705 705 706 707 709 710 711 712 713 713 714 714 715 716 717 718 720 721 722 722 723 723 725 726 727 728 729 730 730 731 731 732 733 734 735 736 738 740 741 743 744 745 746 747 749 750 750 749 749 750 751 751 752 752 753 753 754 754 755 756 757 758 759
702 702 702 702 702 702 702 703 704 706 707 708 709 709 710 711 711 712 713 714 716 717 719 719 719 719 720 721 722 723 724 725 726 727 728 729 729 730 731 732 733 734 736 738 739 741 742 743 744 746 747 748 749 749 749 749 749 750 750 751 751 752 753 753 754 755 755 756 757
699 700 700 700 699 700 700 701 703 704 705 705 706 707 707 708 709 710 711 713 714 715 716 717 717 717 718 718 719 721 722 723 724 725 726 727 728 729 729 730 731 732 734 735 737 739 740 741 743 744 745 747 748 748 748 748 748 748 749 749 750 750 751 752 753 753 754 755 755
697 697 697 697 697 698 699 699 700 702 703 703 704 704 705 706 707 708 709 710 711 712 713 714 714 715 715 716 717 719 720 721 722 723 724 725 726 727 728 729 729 730 731 733 734 736 738 739 741 742 744 745 746 747 747 747 747 747 747 748 748 749 750 750 751 752 753 754 754
694 695 695 695 695 696 697 698 699 699 700 701 701 701 702 703 704 705 706 707 709 710 711 712 713 714 715 715 716 717 718 719 720 721 722 724 724 725 726 726 727 728 730 731 733 734 736 737 739 740 742 744 744 745 746 746 746 746 746 746 747 748 749 749 750 751 751 752 753
693 693 693 693 693 694 695 695 696 697 698 698 698 699 700 700 701 703 704 705 707 708 709 710 712 713 714 714 714 715 716 717 718 719 720 722 723 724 724 724 725 727 728 730 731 732 734 735 737 739 740 742 743 743 744 744 744 744 745 745 746 746 747 748 749 749 750 751 751
691 691 691 691 691 692 693 694 694 695 695 695 695 696 697 698 699 701 702 704 705 706 707 708 709 710 710 711 712 713 714 715 716 718 719 720 721 722 722 723 724 725 727 728 730 731 732 734 735 737 739 740 740 741 742 743 743 743 744 744 744 745 746 747 747 748 749 749 749
690 690 689 689 689 690 690 691 692 692 692 692 693 694 695 696 698 699 700 701 702 703 704 705 706 707 707 708 709 711 712 713 715 716 717 718 719 719 721 722 723 724 725 727 729 730 731 732 734 735 736 737 738 739 740 741 741 742 742 743 743 744 744 745 746 746 747 747 748
688 688 688 688 688 688 688 689 689 689 689 690 691 692 693 694 695 696 697 699 699 701 702 703 704 704 706 707 709 710 711 712 713 714 715 716 717 718 719 720 721 722 724 725 727 728 729 731 732 733 734 735 736 737 738 739 739 740 741 741 742 743 743 744 745 745 745 746 747
686 686 686 685 685 686 686 686 686 686 687 688 689 690 691 692 693 694 695 697 698 699 700 701 702 703 704 706 708 708 709 710 711 712 713 714 715 716 718 719 720 721 722 724 725 727 728 729 730 732 733 734 734 735 736 737 738 739 739 740 741 741 742 743 743 744 744 745 746
683 684 683 683 683 683 683 684 684 684 685 686 687 688 689 690 691 693 694 695 696 697 698 699 701 702 704 705 706 707 708 708 709 709 711 712 714 715 716 718 719 720 721 722 724 725 727 728 729 730 731 732 733 734 734 735 736 737 737 738 739 740 741 741 742 742 743 744 744
Wind_Speed
29 29 28 28 27 27 27 26 26 25 25 25 25 25 24 24 24 23 23 22 22 21 20 19 17 16 14 14 13 13 13 13 13 13 13 14 15 15 15 15 15 15 15 15 15 15 16 16 17 18 19 19 19 19 19 19 19 19 18 18 18 18 18 17 18 18 18 18 18
31 31 30 29 28 28 28 28 27 27 26 26 26 25 25 24 24 24 23 23 22 21 20 19 17 16 15 14 14 14 14 13 13 13 14 14 15 15 15 15 15 15 15 15 15 15 16 16 17 18 19 19 19 19 20 19 19 19 19 18 18 18 18 18 18 18 18 18 17
32 31 31 30 29 29 29 29 29 29 28 27 26 25 25 24 24 24 23 23 22 20 20 19 18 17 16 15 15 15 15 14 14 14 14 15 15 15 16 16 15 15 15 14 14 15 15 16 17 18 19 19 19 20 20 20 20 19 19 19 19 19 18 18 18 18 18 17 17
32 32 31 31 31 31 31 31 31 31 30 29 27 26 25 25 24 24 23 23 22 21 21 20 20 18 17 16 16 16 16 15 15 15 15 15 15 16 16 16 16 15 15 14 14 15 15 16 17 18 19 19 20 20 20 20 20 20 19 19 19 19 19 19 18 18 18 18 17
32 32 32 32 32 32 32 32 31 31 31 30 28 27 26 26 25 24 24 23 23 23 22 21 20 19 19 18 18 18 17 17 16 16 16 16 16 16 16 16 16 16 15 14 14 15 15 16 17 18 18 19 20 20 20 20 20 20 20 20 20 19 19 19 19 19 19 18 18
33 32 32 32 32 32 32 32 32 31 31 30 29 28 28 27 27 26 26 25 25 24 22 22 21 21 20 20 19 19 19 19 18 17 17 17 17 17 17 17 16 16 15 15 15 15 15 16 16 17 18 19 19 20 20 21 21 21 21 20 20 20 20 19 20 19 19 19 18
33 33 33 33 32 32 32 32 32 31 31 30 30 30 30 30 29 28 27 27 25 24 23 23 23 22 22 21 21 21 21 21 20 19 18 18 18 18 18 18 17 16 16 16 16 16 16 16 17 17 18 18 19 20 21 21 22 21 21 21 21 20 20 20 20 20 20 19 19
33 33 33 33 33 33 32 32 32 31 31 31 32 33 33 32 31 29 28 27 26 26 25 24 24 24 23 23 23 23 23 22 22 21 20 19 19 19 19 18 18 17 17 16 17 17 17 17 17 17 18 18 19 20 21 22 22 22 22 22 21 21 21 20 20 20 20 20 20
33 33 33 33 33 33 33 32 32 32 32 33 33 34 33 33 32 31 30 29 28 27 26 25 25 25 25 24 24 24 24 24 23 23 22 20 20 20 20 20 19 19 18 18 18 18 18 18 18 18 18 18 19 20 21 22 22 22 22 22 22 21 21 21 21 21 21 20 20
34 34 34 34 33 33 33 33 32 33 33 34 34 34 33 33 33 32 31 30 29 28 27 27 26 26 26 26 26 25 25 25 25 24 23 22 21 21 21 21 20 20 19 19 18 18 19 19 18 18 18 18 19 20 20 21 22 23 23 22 22 21 21 21 21 21 21 21 21
35 35 34 34 34 33 33 33 33 33 34 34 34 34 34 33 33 33 32 31 29 29 28 28 28 27 27 27 27 27 27 26 25 25 24 23 22 21 21 21 21 21 20 20 19 19 19 19 19 19 19 19 19 20 20 21 22 23 23 22 22 22 22 22 22 22 21 21 21
35 35 34 33 33 33 33 33 34 34 35 35 35 35 34 34 34 33 32 31 30 30 29 29 29 28 28 28 28 28 27 27 26 25 24 23 23 22 22 22 21 21 21 20 20 19 20 20 20 20 19 19 19 20 21 21 22 23 23 23 22 22 22 22 22 22 22 21 21
35 34 34 33 32 32 32 33 34 35 35 36 36 36 35 35 34 33 32 31 31 30 30 29 29 29 29 29 29 28 28 28 27 26 25 24 23 23 23 22 22 22 21 21 20 20 20 20 20 20 20 20 20 20 21 22 23 23 23 23 23 23 22 22 22 22 22 21 22
35 34 34 33 32 32 32 33 34 35 36 37 37 36 36 35 34 33 33 32 31 31 30 30 29 29 29 29 29 29 29 28 27 26 25 24 24 24 24 24 23 23 22 21 21 21 21 21 21 21 21 20 21 21 21 22 23 24 24 24 24 23 23 23 22 22 22 22 22
34 34 34 34 33 33 33 33 34 35 36 37 37 36 36 35 35 34 33 32 32 31 30 30 30 30 30 30 29 29 29 28 27 27 26 25 25 25 25 25 24 24 23 22 22 22 21 21 21 21 21 21 21 21 21 22 23 24 24 24 24 24 23 23 22 22 22 22 22
34 34 34 34 33 33 33 34 34 35 35 36 36 36 35 35 35 35 34 33 32 32 31 31 31 31 30 30 30 29 29 28 28 27 27 27 27 26 26 26 25 25 24 24 23 23 22 22 21 21 21 21 20 21 21 22 22 23 24 24 24 24 23 23 22 22 22 22 22
34 34 34 34 34 34 34 34 35 35 35 36 35 35 35 35 35 35 35 34 33 33 32 32 32 31 31 31 30 30 29 29 29 29 29 28 28 28 28 27 27 26 25 25 24 24 23 22 22 21 21 21 21 20 21 21 22 22 23 24 24 24 23 23 22 22 22 22 22
33 34 34 34 34 35 35 35 35 36 36 35 35 34 34 34 35 35 35 35 35 34 34 34 33 32 32 32 32 31 31 31 30 30 30 30 29 29 28 28 27 27 26 25 25 24 24 23 22 22 21 21 21 21 20 21 21 22 22 23 23 23 23 23 22 22 22 22 22
33 33 34 34 35 36 36 36 36 36 36 35 34 33 33 34 34 35 35 36 36 36 35 34 34 33 33 33 33 33 33 32 32 32 31 31 30 29 29 29 28 27 27 26 25 25 24 24 23 23 22 22 21 21 21 21 21 21 22 22 23 23 23 22 22 21 22 22 22
33 34 34 35 36 36 36 36 36 36 36 34 33 33 33 33 34 35 35 36 37 36 36 35 34 34 34 34 34 34 34 34 33 32 32 31 31 30 30 29 28 28 27 27 26 25 25 24 24 24 23 22 22 22 21 21 21 21 22 22 23 23 22 22 22 21 21 22 22
34 34 35 35 35 36 36 36 36 35 35 34 33 33 33 33 34 35 36 36 36 36 36 35 35 35 35 35 35 35 35 34 34 33 32 32 31 31 31 30 29 28 28 27 27 26 26 25 25 25 24 23 23 23 22 22 22 22 22 22 23 23 22 22 22 22 22 22 23
35 35 35 35 35 35 35 35 35 34 34 34 34 34 34 34 34 35 35 35 35 35 36 36 36 36 36 36 36 36 35 34 34 33 33 32 32 31 31 30 29 28 28 28 28 27 27 26 26 25 25 24 24 23 23 23 22 22 22 23 23 23 23 22 23 23 23 23 24
35 35 35 35 35 35 34 34 34 34 34 34 34 34 34 34 35 35 34 34 34 35 36 37 37 37 37 36 36 35 35 34 33 33 33 33 32 31 31 30 30 29 29 29 28 28 28 27 27 26 26 26 25 25 24 24 23 23 23 23 23 23 23 23 23 24 24 24 25
35 34 34 33 33 33 33 33 33 33 34 34 35 35 35 35 34 34 34 34 34 35 36 37 37 37 36 36 35 35 34 34 34 33 33 33 32 32 31 31 30 30 30 29 29 29 28 28 28 27 27 27 26 26 25 24 24 24 23 23 23 23 23 23 24 24 24 24 25
34 33 32 32 32 32 33 33 33 34 34 35 35 34 34 34 34 33 33 34 35 35 36 36 36 36 35 35 35 34 34 34 34 34 34 33 33 32 32 32 31 31 30 30 29 29 28 28 28 28 27 27 27 26 26 25 25 24 24 24 24 24 24 24 24 24 24 24 24
32 32 31 31 32 32 32 32 33 34 34 34 33 33 34 34 34 33 33 34 35 35 35 35 35 35 35 34 34 34 34 34 34 34 34 34 34 33 32 32 32 32 31 31 30 29 28 28 27 27 27 27 27 26 26 25 25 25 24 24 24 25 25 25 26 25 24 23 23
31 31 31 31 31 31 32 33 33 33 33 33 33 33 33 33 33 33 33 34 34 34 34 34 34 34 34 34 34 35 35 35 35 34 34 34 34 34 33 33 32 32 32 31 30 29 28 27 26 26 26 26 27 27 26 26 25 25 24 25 25 25 26 26 26 26 25 24 23
30 30 30 30 30 31 32 32 32 32 32 33 33 33 32 32 32 32 33 34 34 34 33 34 34 33 33 33 34 35 36 35 35 35 34 34 34 34 34 33 33 33 32 31 30 28 27 26 25 24 24 25 26 26 26 26 25 25 25 25 25 26 26 26 26 26 26 24 22
30 30 29 29 30 31 31 31 32 32 33 32 32 31 31 31 32 32 33 33 33 33 33 33 33 32 32 33 34 35 35 35 35 34 34 34 34 34 34 34 33 33 32 31 29 28 27 26 25 24 23 23 24 25 25 26 25 25 25 25 25 26 26 26 25 25 24 23 21
29 29 29 29 30 30 31 31 32 32 32 31 30 30 30 30 31 32 32 33 33 33 33 33 32 32 33 34 34 34 34 34 34 34 34 34 34 35 35 34 34 33 32 30 29 27 26 25 25 24 23 23 24 24 25 25 25 25 26 26 26 25 25 24 24 23 22 20 20
28 28 28 28 29 30 31 31 31 31 30 29 29 29 29 30 31 32 33 33 33 33 32 32 31 32 34 35 34 34 34 34 34 34 34 34 35 35 35 34 34 33 32 30 28 27 26 25 25 24 24 23 23 24 24 25 25 25 25 26 26 25 25 24 23 22 20 19 18
27 27 27 28 29 30 30 30 30 29 29 28 28 29 29 30 31 32 32 32 32 31 31 31 32 33 34 34 34 34 34 34 34 34 35 35 35 35 35 34 34 33 32 30 28 26 25 24 24 24 24 23 23 23 24 24 24 25 25 25 25 25 24 23 22 21 20 19 18
27 27 27 28 29 30 29 29 28 28 28 28 28 29 30 30 31 31 31 31 31 30 31 32 33 34 34 34 33 34 34 33 34 34 35 35 35 34 34 34 33 33 32 30 28 27 25 24 24 23 23 23 23 22 23 23 24 24 24 24 24 24 24 23 22 21 20 19 18
27 27 28 28 29 29 28 28 27 27 27 27 29 30 30 30 30 30 30 30 31 31 32 33 33 34 34 33 33 33 33 33 33 34 34 34 34 34 34 34 33 33 31 30 28 27 25 24 23 23 23 23 22 22 23 23 23 23 23 23 23 23 23 22 22 21 20 19 18
27 27 28 28 28 28 27 27 27 27 27 27 28 29 30 30 30 30 30 30 30 30 31 31 32 32 32 32 32 32 32 32 32 33 33 33 33 33 33 34 33 32 31 29 28 27 25 25 24 23 22 22 22 22 22 23 23 24 24 23 23 23 23 22 22 21 20 20 19
27 27 27 28 28 28 27 26 26 26 27 28 28 29 30 30 30 31 30 30 29 29 29 30 29 29 30 30 31 32 32 33 32 32 32 32 32 32 33 34 33 32 30 28 27 26 25 25 24 23 22 21 22 22 23 23 24 24 24 23 23 23 23 22 22 21 21 20 20
27 27 28 28 27 27 27 26 26 26 27 28 29 29 29 29 30 30 29 28 28 28 29 29 29 29 30 31 31 32 33 33 32 31 31 31 31 32 32 33 33 32 30 28 26 25 25 24 24 23 22 22 22 23 23 23 23 23 23 23 23 23 22 22 22 21 21 20 20
27 27 28 28 28 27 27 26 26 27 29 30 30 29 29 29 28 28 28 28 28 28 29 29 29 30 31 32 31 32 32 32 31 31 30 30 31 32 31 31 31 31 30 28 26 25 24 24 24 23 23 23 23 23 23 23 23 22 22 22 22 22 22 21 21 21 21 20 20
27 27 28 28 28 27 27 27 28 29 30 30 29 29 28 28 28 28 28 29 29 29 29 29 30 30 31 30 30 29 30 31 31 31 31 30 31 31 30 30 29 29 29 27 25 24 24 23 23 23 23 24 24 24 24 23 22 22 21 21 21 21 21 21 20 20 20 20 19
27 27 27 28 28 28 28 28 29 30 30 30 29 28 28 28 28 28 28 28 28 29 29 28 29 29 29 28 28 28 28 30 30 31 31 31 30 30 29 29 28 28 27 26 25 24 24 23 23 23 23 24 25 24 24 23 22 21 21 20 19 19 19 20 20 20 20 20 19
27 28 28 28 29 29 29 29 30 30 30 30 29 29 28 28 27 26 27 27 27 28 27 27 27 27 27 27 27 27 27 28 29 30 31 30 30 28 28 28 27 27 27 26 25 24 24 23 23 23 24 24 25 25 24 23 22 21 21 21 20 19 18 18 19 19 20 20 19
Wind_Direction
221 220 220 220 219 219 219 222 224 225 226 226 225 224 224 224 225 227 229 230 233 236 240 244 248 250 249 245 242 239 237 235 233 232 233 233 235 236 235 234 232 230 227 224 222 221 220 220 221 221 222 222 223 223 223 222 222 222 223 223 223 223 223 222 221 221 221 221 222
223 224 223 223 222 221 222 223 224 225 226 227 227 226 226 226 226 228 230 232 235 240 244 248 251 251 249 245 242 240 238 237 235 234 234 234 235 236 236 236 235 233 231 228 225 222 221 220 220 220 221 221 222 222 223 223 223 223 224 224 224 224 223 223 222 222 222 221 222
226 226 225 224 223 222 222 223 224 226 227 227 228 228 228 228 229 231 233 236 240 244 247 249 250 250 248 245 241 239 238 238 238 237 237 237 236 236 236 237 238 237 234 231 227 224 222 221 221 221 221 221 222 222 223 224 225 225 224 225 225 225 224 222 222 222 222 221 221
228 228 227 226 225 224 224 224 225 226 227 228 228 229 230 231 232 234 237 240 242 244 245 247 249 249 247 244 240 238 237 237 238 239 240 239 238 237 237 238 239 238 236 233 229 226 224 222 221 221 222 222 223 224 224 225 226 226 226 226 226 225 223 223 222 222 221 221 222
231 230 230 229 228 228 228 227 227 227 228 229 229 230 231 232 234 236 238 239 240 242 244 246 247 248 247 244 240 237 235 235 236 237 239 240 239 238 238 239 240 239 238 235 232 228 226 224 223 223 223 224 224 225 226 227 227 227 227 227 226 225 224 223 223 223 223 223 224
234 234 233 233 232 232 231 230 230 229 229 230 230 231 231 232 233 234 236 237 240 242 244 244 245 246 245 243 239 236 234 233 234 235 237 238 237 237 237 238 240 240 239 237 234 231 229 227 226 225 225 225 225 225 226 227 228 228 228 227 226 225 224 223 223 224 224 224 225
238 237 236 236 235 234 233 233 232 231 230 230 231 231 232 233 234 235 236 238 241 242 242 242 242 242 242 240 237 234 232 231 232 233 234 235 235 235 236 238 239 240 239 238 236 235 233 232 230 229 228 226 225 225 225 226 227 228 227 227 227 226 224 224 224 225 225 225 226
240 240 240 239 238 237 236 235 234 232 231 231 232 232 233 234 235 236 237 239 240 241 241 241 241 241 240 239 236 234 232 230 230 231 232 232 233 233 235 236 238 239 239 238 238 238 237 236 235 233 231 229 226 225 225 225 226 227 227 227 227 226 225 225 225 226 226 226 227
240 241 242 241 240 240 239 238 236 234 233 233 234 234 235 235 236 236 237 238 239 240 241 241 240 241 240 239 237 234 232 230 229 229 230 231 231 232 233 234 236 237 238 238 238 239 240 240 238 236 234 231 228 226 225 225 225 226 227 227 227 226 226 226 226 226 226 226 226
240 241 242 241 241 241 240 239 238 237 236 236 236 236 236 236 236 236 237 238 239 240 240 240 240 239 238 237 236 234 232 231 229 229 229 230 230 231 232 233 234 235 236 238 238 239 240 240 239 237 235 232 229 227 226 225 225 226 227 227 226 226 225 226 226 226 226 226 226
243 243 242 242 242 241 240 238 238 237 237 237 238 238 237 236 236 237 237 238 238 238 238 238 238 237 236 236 235 234 232 231 230 229 229 230 231 232 233 234 235 236 237 238 239 239 240 240 239 238 235 232 229 227 225 225 225 226 226 226 226 225 225 225 226 226 225 225 226
244 244 244 243 243 242 240 238 237 237 237 237 238 238 237 237 236 236 237 237 237 237 238 237 237 236 235 235 234 233 231 230 229 229 230 231 232 234 235 236 237 238 239 239 240 240 240 240 239 238 235 231 228 226 225 225 225 226 226 226 226 225 225 225 226 226 226 226 225
245 244 244 244 244 242 240 239 239 238 237 237 237 237 237 236 236 236 236 236 236 236 236 236 235 235 235 234 233 232 230 229 229 229 231 232 233 234 235 236 237 239 240 240 241 241 241 240 240 238 235 232 229 227 226 226 226 227 227 227 226 226 226 226 226 226 226 226 225
244 244 243 243 243 242 241 240 239 239 238 238 237 237 236 236 235 235 234 234 235 235 234 234 234 233 234 233 233 232 231 230 229 230 232 233 235 235 236 236 238 239 240 241 241 242 241 241 240 238 236 233 231 229 228 227 228 228 229 229 228 228 228 227 227 227 227 227 227
242 242 243 242 242 241 240 240 240 239 239 238 238 237 236 235 234 233 233 233 233 233 233 232 232 232 232 233 233 232 232 231 231 231 232 234 235 236 237 237 238 239 239 240 241 242 242 241 240 239 237 235 234 232 231 231 230 231 231 232 232 232 231 230 230 229 229 230 230
241 241 241 240 240 239 240 240 240 239 239 239 238 237 235 234 233 232 232 231 232 232 231 230 230 230 230 231 231 232 232 232 232 232 233 234 236 237 237 237 238 239 239 239 240 241 242 242 241 239 238 237 236 235 234 234 234 234 234 234 234 234 234 233 233 233 233 234 234
240 240 240 239 238 238 239 239 240 240 239 239 239 237 235 233 232 231 230 230 230 229 229 230 230 229 229 229 230 230 230 231 232 233 234 235 236 237 238 238 239 240 240 240 240 241 242 242 242 240 239 237 237 237 237 237 237 237 237 236 236 236 236 235 235 236 236 238 239
240 240 239 238 237 237 238 239 239 240 240 240 239 237 236 234 232 230 229 229 228 228 228 229 229 229 228 228 229 229 230 230 232 233 235 236 238 239 239 240 241 241 242 242 242 242 243 243 242 241 239 238 237 237 238 239 239 239 239 239 238 238 237 237 237 237 238 239 241
240 240 239 237 237 238 239 239 239 240 240 240 239 238 236 234 233 231 229 228 228 228 228 228 228 229 229 229 230 230 230 231 232 234 236 237 239 240 241 241 242 242 242 242 243 244 244 244 244 242 241 239 238 238 238 239 239 240 240 240 240 239 239 238 238 238 238 240 241
242 241 240 239 239 239 239 240 240 240 241 240 239 238 236 235 234 232 230 229 228 228 228 228 228 228 229 230 230 230 231 232 233 235 236 237 238 239 240 241 241 242 242 243 243 244 244 245 244 244 242 241 240 239 239 239 239 239 239 240 240 240 240 240 240 239 239 240 241
244 243 242 242 241 241 241 241 241 240 240 240 239 238 237 236 235 233 232 230 229 228 228 228 228 229 229 230 230 230 231 233 233 234 236 237 238 240 241 241 241 241 242 242 243 243 243 244 244 244 243 242 241 241 241 241 240 240 239 239 240 240 241 241 241 241 240 240 241
247 246 245 244 243 242 242 242 241 241 240 239 239 238 237 237 236 235 234 232 230 229 228 229 229 230 230 231 231 231 231 232 233 234 236 237 238 240 241 240 240 240 241 241 241 242 242 243 243 243 243 242 242 243 243 243 242 241 241 240 240 240 240 241 241 241 241 241 241
249 248 247 245 244 243 243 242 241 240 239 239 239 238 237 236 236 236 235 232 231 229 229 230 230 230 231 232 232 232 232 231 232 234 235 237 238 238 239 239 239 239 240 240 240 240 240 240 241 242 242 242 242 243 243 244 244 243 242 241 240 240 240 241 241 241 241 241 242
250 249 247 246 244 243 242 241 240 240 239 239 238 237 236 236 236 235 234 232 231 230 230 230 230 231 231 232 232 232 232 231 232 233 235 236 236 237 237 237 238 239 240 241 241 240 239 239 238 239 240 240 241 242 243 244 244 243 243 242 241 240 240 241 242 243 243 243 244
250 248 247 245 244 243 242 240 239 239 239 239 238 237 236 235 234 233 232 232 231 231 231 231 230 230 230 231 231 232 232 232 232 233 234 235 235 236 236 236 237 238 240 240 240 239 239 238 238 238 238 239 239 240 241 242 242 242 241 241 240 240 240 241 243 245 247 248 248
249 248 246 245 244 242 241 240 240 239 239 239 238 236 235 234 233 232 231 231 231 231 231 231 230 230 230 229 230 230 231 232 232 233 233 234 234 234 235 235 236 237 238 238 238 237 237 236 236 237 238 238 238 238 238 238 239 239 239 239 239 239 240 240 242 245 247 250 252
247 246 245 245 243 242 241 241 240 239 239 238 236 235 234 233 232 231 231 231 231 231 231 230 230 229 229 229 229 229 229 230 231 232 233 233 234 234 234 235 236 237 238 238 237 236 235 234 233 234 236 237 237 236 236 237 237 238 237 237 238 238 239 241 242 244 246 249 252
245 244 244 243 241 240 240 240 239 238 237 237 236 235 234 232 231 230 230 230 230 230 229 228 229 228 227 227 228 228 229 229 229 230 231 232 233 234 234 235 236 237 238 238 237 235 233 232 230 229 231 235 236 237 236 237 237 237 237 237 237 238 240 242 243 245 246 247 249
244 243 242 240 239 240 240 238 237 237 237 237 235 234 233 231 230 230 230 229 228 227 226 226 226 226 225 225 227 228 228 228 228 229 229 230 231 233 234 235 236 237 238 238 236 234 233 231 228 226 226 230 234 236 236 236 236 236 236 237 238 240 241 242 244 245 246 247 247
244 242 240 238 238 238 238 238 238 238 237 236 234 232 231 230 229 229 228 228 227 226 226 225 224 223 223 224 226 226 227 227 227 227 228 228 230 231 233 234 236 237 237 237 235 234 232 230 228 225 223 224 230 235 236 236 235 235 236 237 239 241 242 243 244 246 246 247 247
243 240 238 237 237 237 238 238 238 237 236 234 232 230 229 228 227 228 228 227 227 227 226 224 222 222 224 225 225 225 226 226 226 226 226 227 229 230 232 233 234 236 236 235 233 232 231 229 227 225 222 221 225 231 235 236 236 235 236 237 239 241 243 244 246 247 248 248 249
242 239 237 236 236 237 237 237 237 236 234 232 230 228 227 227 228 229 229 228 227 226 224 222 222 222 223 224 224 224 225 225 225 225 226 227 229 230 231 232 233 235 235 234 231 230 228 227 227 225 222 219 221 227 233 236 237 238 238 239 240 242 244 245 247 249 250 251 251
242 239 237 236 236 236 236 236 235 233 232 230 229 228 227 228 229 229 229 227 226 224 222 222 221 221 221 221 221 222 223 224 225 226 227 228 229 229 230 231 233 234 234 232 230 228 226 225 225 224 222 219 218 223 230 234 237 238 239 240 241 243 245 246 248 250 252 253 255
241 239 237 236 235 235 235 234 232 231 229 228 228 228 227 227 227 226 226 226 225 224 223 223 223 222 222 221 221 221 222 224 225 226 227 227 228 228 229 230 232 233 232 230 228 226 224 223 222 222 220 218 218 221 226 231 234 236 237 239 241 243 245 247 249 251 253 255 256
240 237 236 235 235 235 233 232 230 228 227 226 226 227 227 226 226 225 225 225 224 223 223 224 224 223 223 222 222 222 223 223 224 225 226 226 227 227 228 230 232 233 232 229 227 225 222 221 220 219 218 216 217 219 223 227 232 234 237 239 241 243 245 248 249 250 252 253 254
240 237 235 235 235 234 232 230 228 226 225 225 225 225 225 225 226 226 225 224 223 221 221 222 221 221 221 221 221 222 223 223 224 224 225 225 225 226 228 230 232 232 231 229 226 224 222 220 218 216 215 214 216 218 221 225 229 232 235 237 239 241 243 246 247 248 249 250 251
242 238 236 235 234 233 231 229 227 225 224 224 225 225 225 224 225 225 224 222 219 219 219 219 219 218 218 219 220 221 223 223 223 223 223 224 224 226 228 230 231 231 230 228 226 223 221 219 217 214 212 213 215 217 220 223 227 229 231 234 237 239 240 242 244 245 246 247 247
244 240 237 235 234 232 230 228 225 224 224 225 226 225 225 224 223 223 221 219 217 216 217 217 217 218 219 219 220 221 222 222 222 221 222 223 224 226 227 228 230 231 230 228 225 222 220 218 215 212 211 212 214 216 218 221 224 226 228 230 233 236 238 238 240 242 243 244 244
246 241 238 235 234 232 229 227 225 225 226 226 226 225 224 223 222 221 220 218 217 216 217 216 217 218 219 219 219 219 220 221 221 221 222 223 225 226 226 227 228 230 230 228 224 222 219 218 215 212 211 213 214 216 217 219 221 223 225 227 229 232 234 235 236 238 240 242 241
248 243 239 235 233 231 229 227 227 227 228 227 226 225 223 222 221 221 219 218 217 217 217 217 218 219 218 218 217 217 218 219 220 221 222 223 224 225 225 226 227 229 230 228 224 221 219 217 215 213 213 213 215 216 216 217 219 221 222 224 225 226 228 232 233 235 237 239 238
250 244 239 236 233 231 229 228 229 229 229 228 226 225 224 223 221 219 217 216 216 216 217 218 218 218 217 216 215 216 216 217 218 219 220 222 222 223 224 225 226 228 229 228 225 222 219 217 216 214 213 213 214 215 216 216 217 219 221 222 222 222 223 226 229 232 234 237 238